When you browse on this site, cookies collect data to enhance your experience and personalize the content and advertising you see.
Visit our Privacy Policy to learn more. By continuing to use the site, you agree to this use of cookies and data.
  • In United Kingdom
  • List of Countries
  • For 7 days
  • Water Temperature
  • Satellite Maps
  • Weather Map
  • Weather Widgets
  • user-avatar
    Login

    Hourly Weather Kaprun

    Today, 20 July, Saturday

    Time Temperature Precipitation Wind Pressure Humidity
    00:00 +8°C° 0 mm 1 mps 599 mmHg 90%
    01:00 +7°C° 0 mm 1 mps 599 mmHg 89%
    02:00 +7°C° 0 mm 1 mps 599 mmHg 89%
    03:00 +7°C° 0 mm 1 mps 599 mmHg 88%
    04:00 +7°C° 0 mm 1 mps 599 mmHg 87%
    05:00 +9°C° 0 mm 1 mps 600 mmHg 84%
    06:00 +11°C° 0 mm 1 mps 601 mmHg 80%
    07:00 +13°C° 0 mm 1 mps 602 mmHg 76%
    08:00 +15°C° 0 mm 1 mps 602 mmHg 67%
    09:00 +18°C° 0 mm 1 mps 603 mmHg 58%
    10:00 +20°C° 0 mm 1 mps 604 mmHg 49%
    11:00 +21°C° 0.1 mm 1 mps 604 mmHg 47%
    12:00 +21°C° 0.1 mm 1 mps 604 mmHg 46%
    13:00 +22°C° 0.1 mm 1 mps 604 mmHg 45%
    14:00 +21°C° 0.9 mm 1 mps 604 mmHg 51%
    15:00 +20°C° 0.9 mm 1 mps 603 mmHg 58%
    16:00 +19°C° 0.9 mm 1 mps 603 mmHg 64%
    17:00 +18°C° 1.1 mm 1 mps 603 mmHg 72%
    18:00 +14°C° 1.1 mm 0 mps 602 mmHg 80%
    19:00 +13°C° 1.1 mm 0 mps 602 mmHg 87%
    20:00 +13°C° 0.6 mm 1 mps 602 mmHg 88%
    21:00 +12°C° 0.6 mm 1 mps 602 mmHg 88%
    22:00 +10°C° 0.6 mm 2 mps 602 mmHg 88%
    23:00 +11°C° 0 mm 1 mps 602 mmHg 85%

    Tomorrow, 21 July, Sunday

    Time Temperature Precipitation Wind Pressure Humidity
    00:00 +11°C° 0 mm 1 mps 602 mmHg 83%
    01:00 +10°C° 0 mm 1 mps 602 mmHg 80%
    02:00 +10°C° 0 mm 1 mps 601 mmHg 79%
    03:00 +10°C° 0 mm 1 mps 601 mmHg 77%
    04:00 +8°C° 0 mm 0 mps 601 mmHg 76%
    05:00 +10°C° 0 mm 0 mps 602 mmHg 73%
    06:00 +12°C° 0 mm 0 mps 603 mmHg 69%
    07:00 +14°C° 0 mm 0 mps 604 mmHg 66%
    08:00 +16°C° 0.1 mm 1 mps 605 mmHg 63%
    09:00 +18°C° 0.1 mm 1 mps 605 mmHg 61%
    10:00 +19°C° 0.1 mm 1 mps 606 mmHg 58%
    11:00 +17°C° 0.8 mm 2 mps 605 mmHg 65%
    12:00 +17°C° 0.8 mm 2 mps 605 mmHg 71%
    13:00 +17°C° 0.8 mm 2 mps 605 mmHg 78%
    14:00 +16°C° 1.2 mm 2 mps 605 mmHg 80%
    15:00 +16°C° 1.2 mm 2 mps 605 mmHg 83%
    16:00 +16°C° 1.2 mm 2 mps 605 mmHg 85%
    17:00 +15°C° 0.4 mm 1 mps 605 mmHg 87%
    18:00 +14°C° 0.4 mm 1 mps 605 mmHg 89%
    19:00 +14°C° 0.4 mm 1 mps 604 mmHg 91%
    20:00 +12°C° 0.2 mm 1 mps 604 mmHg 91%
    21:00 +11°C° 0.2 mm 1 mps 604 mmHg 92%
    22:00 +9°C° 0.2 mm 1 mps 604 mmHg 92%
    23:00 +9°C° 0 mm 1 mps 603 mmHg 92%

    Day after tomorrow, 22 July, Monday

    Time Temperature Precipitation Wind Pressure Humidity
    00:00 +9°C° 0 mm 1 mps 603 mmHg 92%
    01:00 +9°C° 0 mm 1 mps 603 mmHg 92%
    02:00 +9°C° 0 mm 1 mps 603 mmHg 91%
    03:00 +9°C° 0 mm 1 mps 603 mmHg 90%
    04:00 +9°C° 0 mm 1 mps 603 mmHg 90%
    05:00 +9°C° 0 mm 0 mps 604 mmHg 88%
    06:00 +11°C° 0 mm 0 mps 605 mmHg 85%
    07:00 +12°C° 0 mm 0 mps 606 mmHg 83%
    08:00 +15°C° 0 mm 1 mps 606 mmHg 76%
    09:00 +16°C° 0 mm 1 mps 607 mmHg 69%
    10:00 +19°C° 0 mm 1 mps 608 mmHg 62%
    11:00 +18°C° 0.1 mm 2 mps 608 mmHg 60%
    12:00 +19°C° 0.1 mm 2 mps 608 mmHg 58%
    13:00 +20°C° 0.1 mm 2 mps 608 mmHg 56%
    14:00 +20°C° 0.1 mm 2 mps 608 mmHg 56%
    15:00 +20°C° 0.1 mm 2 mps 607 mmHg 56%
    16:00 +20°C° 0.1 mm 3 mps 607 mmHg 56%
    17:00 +18°C° 0 mm 2 mps 607 mmHg 65%
    18:00 +17°C° 0 mm 2 mps 606 mmHg 75%
    19:00 +15°C° 0 mm 1 mps 605 mmHg 84%
    20:00 +14°C° 0 mm 1 mps 605 mmHg 87%
    21:00 +12°C° 0 mm 1 mps 605 mmHg 90%
    22:00 +11°C° 0 mm 1 mps 604 mmHg 93%
    23:00 +10°C° 0 mm 1 mps 604 mmHg 93%

    23 July, Tuesday

    Time Temperature Precipitation Wind Pressure Humidity
    00:00 +10°C° 0 mm 1 mps 604 mmHg 92%
    01:00 +10°C° 0 mm 1 mps 604 mmHg 91%
    02:00 +10°C° 0 mm 1 mps 603 mmHg 90%
    03:00 +9°C° 0 mm 1 mps 603 mmHg 89%
    04:00 +9°C° 0 mm 1 mps 603 mmHg 88%
    05:00 +11°C° 0 mm 1 mps 604 mmHg 82%
    06:00 +13°C° 0 mm 1 mps 604 mmHg 76%
    07:00 +15°C° 0 mm 1 mps 605 mmHg 70%
    08:00 +16°C° 0 mm 1 mps 606 mmHg 60%
    09:00 +19°C° 0 mm 1 mps 606 mmHg 51%
    10:00 +19°C° 0 mm 2 mps 607 mmHg 41%
    11:00 +20°C° 0 mm 2 mps 607 mmHg 38%
    12:00 +21°C° 0 mm 2 mps 607 mmHg 36%
    13:00 +23°C° 0 mm 2 mps 607 mmHg 33%
    14:00 +23°C° 0 mm 2 mps 607 mmHg 35%
    15:00 +21°C° 0 mm 2 mps 607 mmHg 36%
    16:00 +21°C° 0 mm 2 mps 606 mmHg 38%
    17:00 +19°C° 0 mm 2 mps 606 mmHg 50%
    18:00 +18°C° 0 mm 2 mps 605 mmHg 62%
    19:00 +16°C° 0 mm 1 mps 604 mmHg 74%
    20:00 +14°C° 0 mm 1 mps 604 mmHg 78%
    21:00 +12°C° 0 mm 1 mps 603 mmHg 82%
    22:00 +10°C° 0 mm 1 mps 602 mmHg 86%
    23:00 +10°C° 0 mm 1 mps 602 mmHg 83%

    24 July, Wednesday

    Time Temperature Precipitation Wind Pressure Humidity
    00:00 +10°C° 0 mm 1 mps 602 mmHg 80%
    01:00 +10°C° 0 mm 1 mps 602 mmHg 77%
    02:00 +10°C° 0 mm 1 mps 602 mmHg 74%
    03:00 +9°C° 0 mm 1 mps 601 mmHg 72%
    04:00 +9°C° 0 mm 1 mps 601 mmHg 69%
    05:00 +12°C° 0 mm 1 mps 602 mmHg 64%
    06:00 +13°C° 0 mm 0 mps 603 mmHg 58%
    07:00 +15°C° 0 mm 0 mps 605 mmHg 53%
    08:00 +19°C° 0 mm 1 mps 605 mmHg 48%
    09:00 +21°C° 0 mm 1 mps 606 mmHg 44%
    10:00 +22°C° 0 mm 1 mps 606 mmHg 39%
    11:00 +23°C° 0 mm 1 mps 607 mmHg 38%
    12:00 +24°C° 0 mm 2 mps 607 mmHg 36%
    13:00 +25°C° 0 mm 2 mps 607 mmHg 34%
    14:00 +24°C° 0 mm 2 mps 606 mmHg 36%
    15:00 +24°C° 0 mm 2 mps 606 mmHg 37%
    16:00 +24°C° 0 mm 2 mps 606 mmHg 39%
    17:00 +21°C° 0 mm 2 mps 605 mmHg 51%
    18:00 +20°C° 0 mm 1 mps 605 mmHg 64%
    19:00 +18°C° 0 mm 1 mps 604 mmHg 77%
    20:00 +15°C° 0 mm 1 mps 603 mmHg 80%
    21:00 +14°C° 0 mm 1 mps 603 mmHg 83%
    22:00 +12°C° 0 mm 1 mps 602 mmHg 86%
    23:00 +12°C° 0 mm 1 mps 602 mmHg 85%

    25 July, Thursday

    Time Temperature Precipitation Wind Pressure Humidity
    00:00 +12°C° 0 mm 1 mps 602 mmHg 83%
    01:00 +11°C° 0 mm 1 mps 602 mmHg 81%
    02:00 +11°C° 0 mm 1 mps 602 mmHg 79%
    03:00 +11°C° 0 mm 1 mps 602 mmHg 77%
    04:00 +11°C° 0 mm 1 mps 601 mmHg 75%
    05:00 +13°C° 0 mm 1 mps 602 mmHg 69%
    06:00 +14°C° 0 mm 0 mps 603 mmHg 63%
    07:00 +16°C° 0 mm 0 mps 605 mmHg 57%
    08:00 +18°C° 0 mm 0 mps 605 mmHg 50%
    09:00 +22°C° 0 mm 1 mps 606 mmHg 44%
    10:00 +24°C° 0 mm 1 mps 606 mmHg 37%
    11:00 +24°C° 0 mm 1 mps 607 mmHg 36%
    12:00 +25°C° 0 mm 1 mps 607 mmHg 35%
    13:00 +26°C° 0 mm 2 mps 607 mmHg 33%
    14:00 +25°C° 0 mm 2 mps 606 mmHg 36%
    15:00 +25°C° 0 mm 2 mps 606 mmHg 38%
    16:00 +25°C° 0 mm 2 mps 606 mmHg 41%
    17:00 +23°C° 0.2 mm 1 mps 605 mmHg 54%
    18:00 +21°C° 0.2 mm 1 mps 604 mmHg 67%
    19:00 +17°C° 0.2 mm 0 mps 604 mmHg 80%
    20:00 +16°C° 0 mm 1 mps 603 mmHg 82%
    21:00 +15°C° 0 mm 1 mps 602 mmHg 84%
    22:00 +13°C° 0 mm 1 mps 602 mmHg 85%
    23:00 +13°C° 0 mm 1 mps 602 mmHg 85%
    Show more